Theta_e
285 286 286 287 286 286 285 285 285 285 286 287 285 286 288 288 283 280 288 289 287 289 292 294 295 297 298 298 299 301 302 302 302 303 303 303 303 305 305 308 313 318 320 321 320 317 316 319 325 330 334 336 337 338 338 338 337 337 338 336 336 336 336 335 335 336 336 335 335 336 334 333 332 332 333 334 332 331 329 327 325 323 321 320 319 318 318
286 287 287 288 286 287 287 287 287 287 287 287 288 288 289 288 287 289 290 291 290 293 294 296 297 299 299 299 301 301 300 300 302 303 302 302 303 304 306 308 312 317 322 323 321 320 318 319 323 328 332 334 336 336 337 338 337 337 337 336 335 335 335 334 335 336 336 335 334 333 333 332 331 331 331 332 332 330 328 326 323 322 321 320 318 318 316
283 286 287 286 285 285 285 287 288 288 288 288 289 289 289 289 288 289 289 289 289 295 298 298 299 299 299 299 299 299 300 301 301 302 302 302 303 305 307 310 314 318 323 324 323 320 320 321 324 328 332 334 336 337 337 337 337 337 337 336 335 335 334 335 335 336 336 334 333 331 331 331 331 330 330 331 331 329 328 325 322 320 320 318 318 317 316
282 285 285 286 286 285 285 285 287 287 287 286 288 287 290 288 287 289 289 287 288 294 298 299 299 299 298 298 299 300 300 301 301 301 302 302 304 305 307 311 315 320 324 325 324 323 323 324 326 329 332 334 335 336 336 336 336 337 337 336 335 335 335 335 334 335 334 333 331 331 331 330 330 329 329 329 329 328 326 324 321 320 319 317 317 317 316
281 286 286 285 284 284 282 283 286 288 289 289 291 291 292 292 292 288 285 287 293 296 298 297 297 298 298 299 299 298 299 301 302 302 301 302 303 305 307 310 315 320 325 327 327 327 327 327 328 330 333 334 334 335 335 336 337 336 335 335 334 334 335 334 334 334 333 332 331 330 330 330 330 328 327 326 327 326 325 325 321 318 318 317 317 317 316
281 285 285 284 281 276 278 290 292 292 290 290 288 289 291 293 293 291 294 294 297 298 297 297 297 297 298 299 302 305 305 304 306 307 306 305 305 306 307 311 315 320 326 328 329 329 329 330 331 333 335 335 336 337 337 337 336 335 335 334 334 333 334 334 334 334 333 331 330 330 329 329 328 327 326 325 326 326 325 324 319 318 318 318 318 316 315
281 285 284 280 276 278 290 290 291 293 293 293 292 292 294 294 295 295 294 295 296 297 298 299 299 300 302 306 307 308 310 309 308 308 308 309 308 308 309 312 316 323 329 329 330 331 330 331 333 334 334 336 337 337 337 336 336 336 335 335 334 333 333 334 334 333 332 331 330 329 329 329 328 326 326 326 327 326 324 322 319 317 317 318 318 316 315
285 282 281 274 278 289 293 292 292 292 293 288 292 291 294 295 296 297 295 297 298 299 300 301 302 303 305 307 308 309 311 311 311 309 308 309 308 308 310 312 316 321 328 329 331 332 332 332 332 333 334 335 335 335 336 335 335 335 335 334 334 334 333 333 334 333 332 331 329 329 328 328 327 326 326 327 326 325 323 320 320 319 319 319 317 316 316
280 282 281 281 288 287 289 289 293 294 292 292 290 285 291 296 297 297 296 297 298 299 300 303 304 305 305 304 306 311 311 310 309 307 306 306 308 310 312 313 314 319 326 328 330 332 332 332 332 333 334 335 335 335 334 334 334 334 334 333 333 333 332 334 333 333 332 330 329 328 328 327 327 326 326 326 326 324 321 319 318 317 317 318 319 316 314
285 282 280 281 280 278 283 290 295 299 297 297 295 291 287 295 297 298 297 297 298 300 302 303 303 304 301 299 302 308 307 309 310 312 313 313 313 314 314 315 315 318 323 327 330 330 331 332 333 334 335 334 334 334 333 334 334 334 333 333 333 333 333 334 333 333 332 330 329 328 328 327 326 325 326 326 325 322 321 319 317 318 318 318 319 317 314
284 282 279 279 277 280 286 288 292 295 299 296 296 289 284 293 297 299 298 297 298 299 300 301 303 300 296 297 303 310 309 311 312 311 312 313 314 315 315 314 314 315 319 322 326 330 331 331 332 334 334 334 333 332 332 332 333 332 332 333 333 333 334 334 334 333 331 330 329 328 328 327 327 325 325 324 325 324 323 320 318 319 318 318 318 317 315
283 282 279 279 283 283 288 291 293 296 299 299 291 280 282 291 296 297 297 296 297 299 300 302 301 298 294 297 303 310 311 311 312 311 311 312 313 314 316 317 316 314 314 316 324 328 329 331 333 334 334 333 332 331 331 332 331 331 332 334 334 335 335 334 333 332 331 329 329 328 328 327 327 326 325 325 323 322 323 322 319 319 319 317 313 313 312
284 282 281 284 285 290 294 295 298 299 301 295 284 279 286 294 296 298 298 298 298 300 300 301 298 302 304 305 308 310 311 310 311 312 313 314 314 314 316 316 312 314 313 315 320 327 331 332 333 334 333 332 330 330 330 330 329 331 333 335 335 335 334 332 331 331 331 330 329 329 328 328 327 325 325 324 323 321 321 321 320 318 317 317 314 313 313
284 285 282 283 286 294 298 299 298 300 294 283 283 292 299 298 299 301 302 301 302 302 302 302 303 304 307 308 309 309 310 310 310 312 313 314 314 316 316 314 313 313 314 320 323 327 331 332 333 333 333 331 330 329 329 329 330 333 334 334 334 333 332 332 331 331 330 330 330 329 329 328 327 326 326 326 324 323 321 317 315 315 315 315 315 314 313
287 286 283 283 279 289 297 298 296 300 287 288 296 299 300 302 302 302 302 303 304 305 303 305 306 306 307 308 308 309 309 310 310 312 313 313 313 314 315 317 318 315 315 320 323 327 330 331 332 333 333 331 330 329 329 331 334 334 334 334 333 332 331 331 329 330 330 329 329 330 328 327 327 327 326 325 323 319 317 315 314 312 312 314 315 313 310
282 283 281 282 289 294 299 297 288 294 296 299 300 300 299 303 304 303 304 304 305 305 305 304 305 306 307 308 309 309 310 311 313 314 314 315 315 315 316 317 318 319 316 321 325 329 329 330 332 333 332 330 329 329 331 334 335 334 334 333 333 331 329 329 328 328 329 329 329 329 328 327 328 326 324 324 321 318 316 313 312 310 310 312 313 311 308
287 285 288 294 297 298 301 301 299 299 301 303 303 303 303 302 303 305 304 304 306 307 308 306 306 305 307 308 309 308 310 311 312 313 314 314 314 314 314 316 318 318 317 319 325 326 328 330 331 332 333 331 329 329 333 335 334 334 333 332 331 329 329 330 329 330 330 329 328 329 328 327 326 324 324 323 320 318 315 313 312 310 310 311 311 309 307
295 296 296 298 298 298 298 300 302 302 303 305 305 304 302 304 304 305 304 305 306 307 308 306 306 306 307 308 309 310 312 312 313 314 314 315 316 316 316 318 319 319 320 321 321 324 326 329 329 331 332 332 330 330 334 334 335 335 333 331 329 329 329 329 329 330 329 330 330 331 329 326 324 325 324 322 319 316 314 313 312 311 310 310 310 309 307
288 286 296 296 296 297 297 298 301 303 305 305 305 304 304 304 305 305 306 306 306 307 308 307 306 306 307 308 309 311 312 312 313 313 314 314 315 315 315 319 317 321 320 320 320 322 325 328 329 330 331 332 333 333 333 334 334 334 332 330 327 328 328 329 330 330 328 329 329 330 329 323 322 321 323 322 319 315 314 313 311 311 310 308 307 306 306
287 288 294 297 297 297 298 299 299 300 302 303 305 305 305 305 306 306 306 307 307 308 307 307 306 306 307 308 310 311 312 312 313 313 313 313 314 316 317 319 321 323 322 321 322 322 323 327 328 328 330 331 332 333 333 333 333 333 329 328 327 327 328 328 326 326 328 310 320 326 322 319 318 319 320 320 318 314 312 312 311 310 308 306 305 304 305
290 293 295 295 295 296 297 298 300 302 302 303 303 303 304 305 304 305 305 305 305 305 305 307 307 306 307 309 311 311 311 312 313 313 313 313 314 315 316 318 318 321 321 319 318 320 322 325 327 327 328 330 332 331 332 332 333 331 329 327 327 328 329 327 325 324 326 325 325 325 320 317 317 318 317 318 318 316 316 315 313 311 309 308 307 307 308
285 286 289 292 286 286 292 296 299 301 303 303 302 302 302 303 303 304 303 304 305 306 307 307 307 305 306 308 309 310 312 311 312 312 313 313 314 314 315 317 318 319 319 320 319 318 319 322 325 326 327 328 329 330 330 331 331 330 327 326 326 326 326 325 325 323 325 325 325 321 316 312 309 307 295 300 310 316 313 306 301 301 302 308 309 311 311
283 289 292 293 292 291 294 297 300 302 303 303 301 301 301 302 303 304 304 303 304 305 306 308 307 305 306 307 308 309 311 311 311 311 312 312 313 313 314 314 315 316 318 319 320 320 320 321 322 323 323 325 326 327 329 329 329 327 325 321 321 321 321 323 321 322 322 320 315 311 310 309 310 309 307 302 294 299 302 298 299 299 301 300 300 302 310
290 293 292 292 290 289 292 297 300 301 303 301 300 302 303 303 303 304 303 304 304 304 303 307 307 306 307 308 308 308 311 311 310 311 312 312 313 314 315 314 313 313 315 316 317 318 320 320 321 322 321 323 325 326 327 328 327 325 323 320 319 319 320 321 316 315 318 313 312 311 311 311 311 309 307 304 301 293 294 295 295 296 296 295 298 298 299
288 293 292 292 292 292 297 299 299 301 302 301 301 301 302 303 303 305 305 305 307 306 305 306 306 307 308 309 309 309 310 311 310 309 311 309 310 314 315 314 312 313 313 314 317 319 320 321 321 321 321 321 322 323 324 325 325 323 322 321 320 319 317 312 311 309 312 313 312 311 311 310 309 309 308 305 301 299 296 292 293 294 294 295 296 296 296
293 291 292 293 294 295 297 296 297 297 298 300 301 301 302 304 304 305 306 306 306 307 307 307 306 308 309 307 308 309 309 310 309 307 312 311 311 311 311 311 311 313 314 314 314 315 317 317 318 319 319 319 319 320 320 321 323 323 323 324 324 319 314 313 314 313 314 314 312 311 311 310 309 310 309 308 305 303 299 298 298 295 293 294 295 294 294
293 293 291 290 291 292 293 292 291 295 297 299 299 301 302 303 305 307 308 308 308 307 308 308 307 309 310 310 308 310 309 309 308 310 312 311 310 310 310 311 312 312 312 313 314 310 308 314 315 316 315 316 317 319 319 319 318 318 318 318 318 304 298 304 316 314 314 314 311 310 311 311 309 308 309 307 306 303 302 301 301 301 301 299 294 295 297
291 291 291 287 287 289 291 293 294 296 297 297 297 300 302 304 304 305 305 304 305 306 308 309 308 308 308 309 309 309 309 309 308 308 309 309 310 311 311 311 313 312 312 311 312 313 313 315 315 314 313 314 316 318 318 317 317 317 317 318 316 312 310 309 312 313 313 313 312 311 310 310 310 308 306 305 303 304 304 302 303 302 300 300 299 293 293
290 290 290 291 292 293 293 294 295 295 294 296 297 298 301 301 302 303 303 303 304 306 306 306 309 308 307 308 308 308 308 309 309 308 308 308 309 311 312 313 313 313 312 311 312 313 314 314 314 313 312 314 314 314 316 317 317 316 315 315 314 311 310 311 312 311 311 311 312 311 302 302 304 304 302 302 302 303 302 302 301 301 300 298 298 297 296
289 290 290 290 292 292 292 291 291 292 293 294 294 296 299 300 300 301 302 302 303 303 304 305 306 306 306 306 305 306 306 307 308 311 311 311 311 311 312 314 314 313 312 311 310 311 312 312 312 311 311 313 313 313 313 313 312 313 312 311 310 309 309 309 309 309 309 309 305 295 301 305 306 305 303 303 302 301 300 301 299 298 298 299 296 299 299
289 289 290 291 291 291 290 290 291 291 292 293 294 295 297 297 298 299 301 302 302 303 304 304 304 305 305 305 306 306 306 307 309 311 312 312 311 311 311 312 310 308 308 308 309 310 311 311 311 310 311 313 313 313 312 311 310 309 309 308 306 296 295 296 300 308 305 303 302 304 304 304 304 302 299 301 300 301 300 299 298 298 298 299 299 299 300
287 287 288 288 288 288 288 289 289 289 290 291 292 292 294 295 295 297 300 301 301 302 304 304 303 303 304 305 307 308 309 310 309 308 310 311 311 310 310 311 310 303 309 308 308 308 309 310 310 311 313 313 314 313 312 311 310 309 307 300 304 303 298 295 301 301 303 299 302 302 301 303 302 302 300 301 301 300 300 300 299 298 299 298 298 299 298
285 284 284 284 285 286 286 287 287 287 289 289 290 293 294 294 295 298 300 301 302 303 304 304 304 304 304 305 307 307 308 308 308 308 307 308 309 309 310 311 312 311 309 308 308 308 308 308 309 311 312 313 313 313 312 311 309 306 306 305 303 302 297 297 298 303 302 301 302 302 302 300 300 301 301 301 300 299 301 300 298 297 299 299 300 300 297
286 284 284 285 285 284 284 286 287 287 288 290 291 293 293 294 294 296 298 298 301 302 301 302 303 303 303 305 306 306 306 305 303 303 304 305 306 307 309 311 313 313 312 310 308 307 308 308 308 311 311 312 311 311 311 310 308 306 305 304 302 302 301 300 302 302 301 300 300 298 299 297 301 301 299 299 301 300 298 297 295 298 299 300 300 298 293
289 287 287 287 288 288 289 287 287 287 288 288 289 291 293 293 293 294 295 297 299 300 301 302 302 302 303 305 305 304 303 303 303 304 304 304 304 306 308 310 312 314 313 311 308 306 307 306 303 307 310 310 311 311 311 309 308 307 307 305 302 302 301 300 301 301 300 301 302 302 301 302 301 296 298 301 301 299 298 298 297 298 298 298 298 297 293
289 287 287 287 288 288 288 288 288 289 289 289 289 290 291 292 292 293 294 297 299 300 299 300 301 302 303 303 302 302 302 302 303 304 305 304 304 305 306 305 306 308 310 309 307 305 307 307 291 289 305 307 308 307 307 309 309 307 307 307 305 305 302 301 301 301 302 303 302 302 303 298 297 298 299 300 300 299 298 297 297 298 299 298 297 296 294
289 288 287 287 288 288 288 288 289 289 289 289 289 290 290 290 291 293 294 296 297 297 298 299 301 301 300 301 301 302 301 301 302 302 304 305 306 303 301 300 300 300 302 302 301 301 305 304 291 292 305 307 306 305 301 292 308 307 307 307 306 304 304 304 305 303 302 302 301 299 296 298 300 300 299 301 300 299 298 298 295 297 298 297 295 294 292
289 288 287 287 288 288 288 289 289 289 289 290 290 290 289 289 291 292 293 293 294 294 296 299 300 300 300 302 302 301 301 301 302 302 303 303 304 301 299 297 295 295 294 294 295 299 301 296 293 303 311 308 305 304 298 291 296 307 307 306 305 304 303 303 303 301 302 302 298 301 301 301 301 301 301 302 301 300 298 298 297 297 296 295 295 294 293
287 288 288 288 288 288 288 289 289 289 289 289 289 289 290 289 290 291 291 291 292 292 294 296 299 301 301 300 300 299 299 300 300 301 302 302 302 301 298 296 294 294 293 293 295 298 296 293 302 308 308 309 309 307 299 293 296 307 306 306 306 306 304 303 302 301 301 302 302 303 304 304 303 303 303 303 303 299 296 297 297 297 297 296 296 294 294
287 287 287 287 287 287 287 287 288 288 289 290 289 288 289 289 290 290 290 290 290 290 291 292 294 297 298 299 299 298 298 298 298 299 300 301 301 302 301 299 295 294 292 289 295 297 292 289 297 306 306 307 308 307 301 297 298 303 306 306 306 304 303 302 303 302 302 302 300 297 303 303 303 303 302 302 302 301 300 298 297 297 297 297 296 296 294
286 286 287 287 287 287 287 287 287 288 289 289 289 289 289 289 289 289 289 288 288 289 289 289 289 290 294 296 297 297 298 297 297 295 296 298 297 297 297 295 294 294 291 290 293 294 293 292 295 299 303 305 305 296 306 297 302 304 305 306 305 304 303 302 301 301 300 301 300 303 303 303 302 303 303 303 303 303 302 301 300 299 300 298 298 297 297
286 286 286 286 286 287 287 287 287 287 287 288 288 288 288 288 288 288 288 288 288 288 288 288 287 287 290 294 295 295 295 296 297 296 293 291 290 291 292 293 292 292 287 288 291 293 294 295 295 292 294 298 301 289 292 304 305 303 304 304 305 304 304 302 302 301 301 302 303 304 302 303 303 303 302 303 302 302 303 302 301 300 300 300 299 300 301
286 285 285 285 286 286 286 286 286 286 287 288 288 287 287 287 288 288 288 288 287 286 286 286 286 286 288 290 292 291 290 291 293 295 296 293 291 289 288 288 291 291 285 289 292 294 293 293 293 293 288 289 292 287 292 303 304 304 303 302 302 304 304 304 304 304 304 305 305 305 305 304 304 303 302 303 303 303 302 301 300 300 300 300 300 300 300
286 285 285 285 285 286 286 286 286 286 286 286 287 287 287 287 287 287 287 287 286 286 285 285 285 285 285 286 288 288 288 287 288 290 293 294 294 291 288 287 288 288 285 287 290 291 292 291 291 288 287 287 287 289 300 305 304 302 303 303 303 302 302 304 304 305 305 303 303 304 304 301 304 305 304 305 304 305 304 303 302 302 301 301 300 300 300
285 285 285 285 286 286 285 285 285 285 286 287 287 286 286 286 285 286 286 286 285 285 285 284 284 284 284 284 285 286 288 287 286 286 286 286 287 287 287 285 286 287 286 285 289 290 290 288 286 285 286 287 289 291 302 303 304 304 304 304 304 303 302 302 302 303 303 304 304 304 303 303 305 305 306 305 303 305 305 304 304 304 304 303 302 300 301
284 285 285 284 285 285 285 286 286 287 286 286 285 286 286 286 285 285 285 285 285 284 284 284 284 284 283 283 284 285 287 289 287 286 286 285 284 284 285 284 285 284 284 285 286 287 287 284 284 285 285 286 289 297 299 298 298 299 300 301 302 302 302 301 300 300 301 301 302 304 304 305 306 307 306 304 303 304 302 299 301 303 303 303 303 303 303
284 284 284 284 285 285 285 286 286 285 285 285 284 283 285 285 285 285 284 285 285 285 284 284 284 284 284 284 283 282 282 284 288 286 285 286 286 285 284 283 283 283 284 285 284 284 284 284 284 284 285 286 287 292 293 293 293 294 293 293 294 296 297 298 298 298 298 298 297 296 296 300 303 304 303 301 304 303 303 303 305 304 304 301 300 297 297
284 283 284 284 284 285 285 284 284 283 283 283 284 284 284 285 285 284 284 284 284 285 284 283 283 283 284 284 284 283 283 282 282 284 284 284 285 285 285 283 282 282 283 284 283 283 282 282 283 283 284 285 287 288 288 288 288 288 289 290 290 290 290 291 293 294 295 295 296 297 297 297 299 301 301 302 303 303 304 304 303 302 303 303 304 304 303
283 283 283 283 284 284 283 282 282 282 282 284 284 284 285 284 284 284 283 283 284 284 284 284 283 282 283 283 283 283 283 283 281 280 283 283 283 283 283 282 281 281 282 283 283 283 282 282 282 282 283 284 285 285 285 284 284 285 285 285 285 286 286 286 287 288 288 288 289 289 290 290 290 291 292 292 293 294 294 296 296 298 299 301 302 301 301
283 283 282 282 282 282 282 282 281 282 282 283 283 284 285 284 282 282 282 282 282 283 284 283 283 282 282 282 283 282 282 282 282 282 282 282 282 282 282 282 281 280 280 281 282 282 281 281 281 281 282 283 282 282 282 282 282 283 283 283 283 283 283 283 284 284 286 286 287 287 288 288 289 288 288 289 289 289 290 290 291 289 288 291 294 298 298
281 281 281 282 282 282 282 282 282 282 282 283 283 284 284 283 282 282 282 281 282 281 281 282 283 282 282 281 281 281 281 281 281 281 281 281 281 281 280 281 280 280 280 280 281 281 281 281 280 280 280 281 280 280 280 280 280 280 280 280 280 280 280 281 282 282 282 283 284 285 285 286 287 287 287 287 287 288 288 288 288 289 290 291 291 293 294
281 282 282 282 282 281 282 282 282 282 282 283 283 283 283 283 282 281 281 281 281 280 280 280 280 281 281 281 280 280 280 280 280 280 280 280 280 280 279 279 279 279 279 279 279 279 280 280 279 279 279 279 279 279 279 279 279 279 279 279 279 279 279 279 280 281 281 281 282 282 282 283 284 284 285 285 286 286 286 287 287 288 287 288 289 289 290
Wind_Speed
10 10 12 11 10 11 13 15 15 15 12 8 11 11 13 7 11 16 8 3 8 11 9 10 13 13 13 13 14 13 14 13 13 13 12 13 15 16 16 14 11 10 10 9 10 11 12 14 16 17 15 15 14 14 14 14 16 17 16 21 23 22 20 22 20 20 17 16 18 15 17 17 12 16 16 16 14 13 12 12 11 13 13 13 12 12 11
10 10 9 8 11 13 13 13 15 15 15 15 13 15 13 13 15 16 11 12 16 15 11 13 15 13 12 14 13 10 13 15 15 13 11 13 15 15 14 14 13 11 10 10 10 10 12 15 17 16 15 15 16 16 15 15 19 20 19 21 23 22 22 23 20 18 16 15 17 17 13 17 15 13 12 14 14 13 13 13 11 11 12 12 13 13 13
10 10 8 7 10 11 15 15 15 15 15 16 16 14 13 12 15 16 17 17 20 15 11 15 14 12 13 15 17 17 17 15 14 11 11 12 14 15 14 12 13 12 11 11 10 10 12 14 15 14 14 14 14 15 16 16 18 20 20 21 22 22 23 22 18 16 14 17 13 12 14 19 13 13 14 12 13 13 13 12 12 11 11 13 12 11 13
14 4 9 12 10 11 15 18 17 16 16 17 15 13 11 10 14 13 13 15 17 14 10 10 11 15 16 16 16 13 11 12 12 10 12 12 14 15 14 13 13 12 11 11 10 10 11 13 14 14 13 14 14 15 15 19 19 19 18 20 21 21 20 16 18 17 17 17 18 14 16 19 16 12 11 12 13 12 12 12 10 11 12 13 12 12 11
13 2 5 5 5 8 9 13 18 20 17 16 12 13 11 14 12 11 12 17 15 14 10 11 14 13 14 13 10 10 12 13 12 11 12 13 16 16 14 14 14 12 11 11 10 10 10 10 12 13 13 13 15 15 18 19 17 18 19 18 19 17 16 16 15 16 16 17 18 16 19 18 13 11 11 12 12 13 13 11 10 12 14 13 12 12 12
11 3 0 1 3 5 6 3 2 9 16 16 16 15 15 16 14 13 14 16 13 10 10 12 14 16 13 9 12 11 11 12 15 16 14 16 17 16 15 14 13 13 9 8 9 10 10 10 11 11 13 14 13 14 15 17 18 17 19 19 18 16 15 17 15 11 13 16 17 16 16 14 11 12 12 13 12 11 11 10 10 11 12 14 13 13 13
5 1 2 6 5 6 2 1 4 4 8 8 12 14 14 14 14 17 18 17 16 15 13 14 13 12 13 12 14 16 13 12 13 16 18 18 15 14 12 13 12 11 10 9 9 9 9 9 9 10 11 12 12 14 15 17 18 20 20 18 17 15 15 14 12 12 11 15 15 12 13 13 14 12 15 17 17 12 11 12 13 13 13 13 12 13 13
3 3 1 2 3 4 8 5 2 5 1 3 4 10 14 15 13 12 15 16 16 16 15 12 11 11 14 14 15 16 17 12 12 12 14 16 15 14 11 11 12 11 9 9 9 9 7 6 8 10 11 12 15 16 16 16 17 18 18 18 14 13 13 14 13 14 14 16 15 15 16 16 16 16 15 19 19 12 11 8 9 8 10 12 13 13 13
5 3 4 8 10 12 4 5 6 3 4 2 2 6 9 5 7 11 14 16 14 12 10 11 11 11 11 12 13 14 12 7 5 8 11 11 13 13 13 13 14 13 10 9 10 8 5 6 8 10 11 14 15 15 16 14 17 18 18 18 15 15 15 14 14 14 15 15 15 15 16 16 15 11 12 14 17 12 11 12 12 9 11 12 11 12 12
2 7 7 6 2 2 3 3 7 5 4 1 1 4 14 7 8 8 10 11 9 8 9 9 9 8 9 10 11 5 6 3 2 6 8 9 10 12 12 12 12 13 10 8 8 8 8 8 9 10 12 14 14 15 16 16 13 15 19 17 14 15 14 13 13 14 14 15 15 15 15 16 16 15 12 14 12 11 13 12 12 10 11 11 11 11 13
4 4 5 5 5 2 3 7 8 9 6 5 6 4 11 2 2 4 7 10 11 12 11 11 9 6 8 11 9 6 6 10 12 14 14 12 12 12 12 11 12 13 8 7 9 9 9 9 10 12 13 15 15 15 15 14 12 12 15 13 13 14 12 13 14 13 13 14 15 15 15 15 14 14 14 14 12 12 10 11 13 12 10 11 9 9 9
4 5 4 5 2 4 5 8 8 10 9 5 4 5 3 3 6 8 10 15 16 15 13 12 11 9 11 11 10 8 13 14 14 12 15 15 14 15 15 14 11 11 10 7 7 9 11 12 11 12 13 14 14 13 11 11 13 13 12 13 18 14 11 12 12 12 13 14 15 15 16 14 13 15 13 10 9 12 13 12 10 9 8 8 11 11 11
8 4 4 4 4 4 5 6 6 9 7 5 4 7 4 4 9 12 12 15 17 16 14 11 13 12 11 12 14 16 16 17 17 13 13 15 15 15 16 15 15 11 8 7 8 9 9 10 10 12 13 14 12 11 12 12 13 11 11 11 11 10 11 12 13 13 13 15 16 15 15 14 13 10 11 14 15 13 11 9 10 13 14 12 11 11 10
11 7 5 6 5 3 3 4 9 11 7 3 8 9 7 12 16 16 12 12 15 17 15 12 12 13 13 13 14 17 16 15 16 16 16 15 15 14 14 15 14 11 9 7 6 7 7 9 11 12 13 13 14 12 12 14 14 11 11 10 10 11 12 13 14 14 15 14 15 13 13 14 14 12 11 11 13 17 12 11 12 13 14 14 14 11 9
5 4 7 7 7 2 3 16 14 2 5 7 11 14 16 12 11 11 11 8 8 8 11 12 13 14 14 14 15 15 15 14 14 15 15 14 14 15 15 14 12 7 8 7 7 8 7 9 11 12 14 15 15 13 15 17 15 13 12 11 11 11 12 12 12 14 14 15 13 11 12 13 14 17 16 16 13 10 12 13 13 12 12 15 14 14 11
6 5 6 5 6 14 13 11 8 13 12 12 15 14 13 14 11 9 7 7 7 9 10 12 13 14 14 15 13 13 12 12 12 13 13 13 12 12 12 13 14 9 8 8 6 7 6 9 10 12 14 14 14 15 19 17 16 14 12 14 12 11 11 11 11 12 13 14 13 11 13 13 13 16 15 16 13 12 12 12 12 12 11 12 14 14 13
3 5 9 12 16 17 15 11 12 13 16 13 14 15 13 14 11 11 9 14 13 12 12 12 13 13 13 13 12 11 11 11 11 12 12 11 11 10 11 12 11 8 8 10 6 6 7 10 11 12 13 15 15 17 16 14 16 16 15 14 12 11 12 13 15 15 15 13 14 13 13 15 14 15 17 17 15 13 14 13 13 13 13 11 14 13 13
9 13 13 12 13 16 19 17 12 12 14 14 13 16 13 12 12 12 12 14 16 16 15 13 11 11 11 11 11 11 11 11 10 9 9 10 10 9 8 9 7 6 6 7 5 7 8 10 12 13 14 15 17 16 14 13 14 14 14 12 12 13 13 13 14 13 15 17 18 18 14 14 14 16 17 15 12 11 12 12 13 14 15 11 10 11 12
11 6 3 13 17 18 22 18 17 16 13 14 14 14 12 12 13 14 12 14 15 14 17 14 12 11 10 11 10 9 9 9 9 8 8 8 9 9 9 8 6 5 4 5 7 6 7 8 9 11 13 13 14 13 13 13 13 13 13 12 12 12 14 15 14 13 15 15 15 15 15 12 11 8 10 13 11 11 12 12 10 10 10 11 10 10 11
4 8 16 15 19 19 14 10 14 19 21 21 16 14 13 12 12 13 13 13 16 13 13 16 12 11 9 9 8 7 7 7 7 8 8 8 8 8 8 7 5 6 3 3 6 6 5 5 7 9 10 12 12 11 12 13 14 13 11 11 12 13 13 11 10 11 13 13 14 10 10 11 11 11 9 10 10 10 12 12 12 10 7 9 11 12 12
11 13 8 16 21 12 11 17 18 18 18 18 18 18 17 14 14 15 15 11 11 15 14 12 11 10 9 8 6 6 5 6 6 7 7 7 7 6 7 7 6 6 6 5 2 1 3 3 5 7 10 10 10 11 12 13 13 14 13 13 13 13 13 11 9 10 11 9 11 9 7 6 4 6 8 9 9 7 8 10 13 13 11 10 10 12 13
7 9 15 19 16 13 16 18 21 23 21 19 19 18 19 16 15 15 15 16 14 12 13 10 9 10 8 8 8 6 4 5 6 7 7 7 6 6 6 5 6 6 6 5 5 4 2 5 5 3 6 8 9 10 12 12 13 13 12 12 12 11 10 11 11 11 10 10 10 8 9 8 9 8 7 9 8 12 13 15 14 15 16 15 16 13 12
9 15 18 14 13 16 15 16 21 22 19 18 19 15 14 18 15 15 13 12 14 15 14 12 9 9 11 11 9 8 5 6 5 5 6 7 7 7 7 8 9 8 7 6 5 6 6 5 4 3 4 5 7 7 7 7 10 10 11 10 9 9 10 11 11 10 8 8 8 9 12 13 13 13 9 6 10 5 6 11 15 16 16 9 12 12 12
12 11 13 16 13 13 17 20 21 20 16 17 19 17 14 16 16 16 16 13 9 11 10 11 13 12 12 11 9 9 8 7 7 6 6 5 6 7 8 8 7 8 8 8 7 5 4 4 3 2 3 3 6 8 9 8 9 10 11 10 9 9 10 9 8 9 8 10 11 11 10 9 10 9 10 10 6 9 10 12 11 11 12 14 16 15 13
10 14 14 16 18 18 16 17 19 16 17 17 16 17 16 16 17 16 15 16 14 10 9 10 11 10 8 9 10 9 7 7 8 7 6 6 7 8 8 9 9 7 6 6 7 6 6 5 3 3 2 2 2 4 5 7 8 9 10 11 11 9 7 7 8 9 10 10 10 11 11 10 10 11 13 12 12 9 7 9 10 11 12 13 15 13 13
10 15 17 17 13 11 13 17 13 15 23 22 19 18 19 15 15 15 15 15 14 13 11 9 9 10 8 8 7 7 8 8 8 6 7 8 8 8 10 9 8 7 6 5 5 6 7 7 7 5 4 4 3 3 4 5 8 10 12 12 12 9 9 9 10 10 10 11 11 10 10 12 13 12 11 12 12 14 13 10 7 7 7 9 12 12 11
10 12 17 19 14 15 14 15 15 22 20 21 19 18 18 18 15 8 8 10 11 12 11 11 8 7 7 8 8 7 7 8 8 8 7 10 11 10 8 8 8 9 9 9 9 8 6 5 5 6 6 5 3 3 4 4 4 4 5 4 4 5 8 10 9 10 10 9 8 9 10 10 10 11 10 9 11 13 14 15 13 12 8 5 6 12 11
11 11 12 10 13 16 21 23 20 19 16 10 14 16 17 17 16 17 17 19 18 15 11 10 10 10 11 10 10 11 12 11 8 10 12 11 9 8 9 9 8 9 8 8 7 7 6 6 6 6 6 7 6 3 2 3 3 4 4 5 5 6 7 6 4 4 5 7 9 10 11 10 9 8 8 10 11 9 8 8 9 10 8 7 6 6 13
16 14 11 11 12 15 17 16 15 15 19 21 19 16 17 18 19 16 16 15 15 14 13 13 11 10 9 9 9 9 10 10 11 11 7 6 7 7 5 4 6 7 7 7 7 6 6 6 6 6 6 6 5 6 4 2 3 4 4 4 4 6 6 5 5 5 5 7 7 7 7 8 10 8 8 7 7 8 9 10 10 9 9 8 8 6 6
18 18 16 14 13 16 18 17 17 18 18 18 20 20 18 18 17 16 16 17 16 14 13 12 11 11 10 10 11 9 10 11 10 8 10 11 11 10 10 8 7 9 10 9 9 8 7 7 7 7 6 5 5 5 5 5 4 4 5 5 5 5 5 5 6 6 7 7 8 10 10 10 9 10 11 10 9 8 9 10 10 10 11 9 8 10 10
20 19 17 14 17 17 17 17 17 17 17 18 19 19 20 21 18 16 17 17 15 14 14 12 12 13 13 11 9 10 8 8 8 8 10 11 12 12 12 12 11 10 9 10 9 9 9 7 7 6 6 5 4 4 4 4 4 4 4 4 4 6 9 8 6 7 7 8 8 8 8 7 7 10 10 10 10 9 8 9 9 8 8 9 9 9 8
22 20 13 10 14 17 20 18 19 19 19 18 19 20 19 18 19 19 18 16 15 13 12 13 13 13 11 10 9 10 11 10 11 11 11 11 12 12 11 12 12 12 11 11 10 10 9 8 8 7 6 5 4 3 4 5 4 4 4 5 6 6 7 9 8 9 8 8 9 8 8 8 8 7 8 8 8 9 9 9 10 9 9 9 9 8 8
20 22 21 22 21 17 15 17 18 20 20 21 17 15 15 12 13 14 14 13 14 12 11 11 12 11 11 9 9 10 10 10 10 12 13 12 11 11 11 9 11 12 12 10 9 8 8 8 8 8 8 6 5 3 3 4 5 5 5 5 5 7 7 7 7 7 6 7 7 8 9 9 9 9 8 9 7 7 9 9 9 9 9 9 8 7 9
16 13 14 15 14 15 18 19 17 17 17 16 16 14 13 15 15 14 13 14 13 14 12 11 11 10 9 7 7 8 8 9 10 11 11 11 10 11 10 9 10 12 12 12 12 11 9 9 8 6 6 6 5 4 4 4 5 5 6 6 6 6 7 7 8 7 6 5 6 7 7 6 8 8 8 8 8 7 7 8 7 8 8 7 7 6 9
14 14 13 12 13 14 15 15 15 16 17 18 18 18 16 15 15 16 15 13 13 13 13 10 9 9 9 7 8 8 9 10 9 9 8 8 9 10 9 9 12 12 13 13 11 9 9 9 9 7 4 5 5 5 3 5 6 6 6 7 7 7 7 7 7 5 5 7 7 7 7 7 7 7 8 8 7 7 7 7 6 7 7 7 7 6 8
16 14 13 12 13 14 15 15 14 15 15 14 15 16 17 16 18 18 18 17 13 13 13 12 9 8 7 8 8 8 8 7 7 7 8 9 9 8 9 13 12 12 11 11 12 11 10 9 11 11 7 6 6 6 5 5 6 6 7 7 8 6 7 8 7 5 4 5 6 6 6 8 8 8 8 7 7 6 6 6 5 5 7 7 7 7 7
16 15 14 14 14 15 16 14 14 15 15 15 16 17 18 17 17 17 15 14 14 14 13 12 9 9 7 6 4 5 6 6 6 6 6 6 6 9 10 11 12 11 10 10 12 13 10 9 12 10 7 6 7 7 7 9 7 5 5 6 7 8 7 6 6 5 5 5 6 6 8 8 7 7 7 6 7 6 7 6 6 5 5 6 7 7 7
16 15 15 14 14 15 15 15 14 14 15 17 16 15 16 16 14 15 15 14 14 15 14 13 10 8 6 5 6 8 8 8 8 7 7 8 8 11 12 11 10 9 9 9 12 11 10 13 13 7 6 6 6 6 7 9 7 4 4 5 6 5 6 7 8 6 6 6 7 7 6 7 7 7 6 6 6 6 6 6 6 6 5 6 5 6 6
15 14 14 15 13 14 15 15 14 14 15 17 17 16 16 16 14 13 13 13 13 14 14 14 13 9 9 9 8 9 10 9 9 8 7 8 7 10 9 8 7 7 6 9 9 8 10 12 9 7 6 6 6 6 7 8 7 6 5 4 6 5 6 6 6 6 6 6 7 7 7 7 7 6 6 6 6 6 5 6 6 6 6 6 6 5 4
14 15 16 15 14 14 15 15 14 15 14 13 15 16 17 17 15 14 14 14 13 14 14 14 14 11 11 11 10 9 10 10 9 9 8 6 6 6 4 7 10 9 11 13 10 9 11 13 10 6 6 6 6 5 6 6 5 5 6 5 5 6 7 5 5 6 6 6 7 6 7 6 5 5 5 5 6 6 6 6 6 5 5 5 5 6 6
14 15 14 14 14 14 14 15 15 15 13 13 14 15 15 16 14 14 15 15 12 12 14 14 14 13 13 11 9 8 9 9 10 11 9 8 10 8 8 9 11 11 12 11 9 8 10 9 9 7 7 6 5 6 3 6 6 4 4 5 5 5 6 5 4 5 4 6 6 6 7 7 5 5 5 4 4 5 5 6 6 5 6 6 5 6 6
14 14 14 14 13 14 14 13 14 15 15 14 14 15 16 15 14 14 13 12 12 12 13 14 15 14 13 12 10 9 9 10 10 11 12 12 9 7 7 7 11 10 17 15 10 8 8 9 9 9 7 6 6 8 6 5 5 5 4 4 4 5 5 6 5 6 5 5 6 6 6 7 6 6 4 4 4 4 4 5 5 4 4 5 6 6 6
14 14 13 13 13 14 13 13 13 14 14 14 14 14 15 14 13 13 13 13 13 12 13 14 16 16 15 14 12 11 10 10 10 9 7 9 10 11 8 8 9 11 17 11 10 7 8 8 8 8 12 9 6 9 7 5 5 5 5 5 5 4 4 4 5 5 5 5 6 6 6 6 6 5 5 4 4 4 4 4 4 4 4 4 4 4 4
13 11 11 12 12 13 13 12 12 13 13 14 14 14 15 14 13 14 14 14 13 12 13 13 14 14 14 14 12 11 11 11 10 9 6 4 4 10 13 10 10 11 16 12 9 8 9 9 9 13 14 11 10 10 7 6 6 5 4 3 5 5 4 3 4 4 4 4 5 5 5 5 5 5 5 5 5 5 5 5 4 4 4 5 4 4 4
11 10 11 11 12 12 12 12 12 13 12 11 11 12 14 14 14 13 13 13 13 12 12 12 12 12 12 12 11 10 9 9 9 9 8 8 7 8 12 12 11 10 12 14 9 9 9 11 14 17 14 14 11 10 9 8 7 7 6 6 6 6 5 4 4 4 4 4 4 3 4 4 4 4 4 4 3 3 4 5 5 5 5 5 5 5 5
10 10 10 11 11 11 11 11 10 10 11 11 11 11 13 14 14 12 12 12 13 12 11 10 10 11 11 11 11 11 9 7 8 9 7 7 6 7 10 11 10 11 12 13 10 11 10 16 18 17 16 15 12 9 9 8 8 8 8 7 7 7 7 6 5 4 4 4 3 3 3 3 3 3 3 3 4 3 3 3 4 3 3 3 2 2 2
10 9 10 10 10 11 12 10 10 10 11 12 13 12 12 13 13 11 11 11 11 11 11 10 10 10 10 10 10 10 10 9 7 9 9 8 8 8 9 12 13 15 12 11 11 12 13 15 16 18 16 14 13 10 10 9 9 8 9 9 8 8 8 7 7 6 7 7 6 5 5 5 4 3 3 3 3 3 2 2 2 2 2 3 3 2 2
9 10 9 10 11 11 10 10 10 10 10 10 10 10 9 10 10 11 11 9 10 10 10 10 10 10 11 10 9 9 9 9 8 8 10 10 9 9 10 10 12 15 12 10 13 15 22 22 21 19 17 14 11 11 11 11 10 10 10 9 9 9 8 8 8 8 8 8 8 7 6 6 6 5 6 6 5 4 4 4 4 3 2 1 1 0 1
9 9 9 9 9 10 9 9 9 8 8 9 9 9 10 10 10 10 10 10 10 10 11 11 10 10 10 10 10 8 8 9 7 7 9 9 9 9 9 10 14 15 11 9 11 11 17 21 21 20 17 15 11 10 10 8 8 8 9 10 9 9 9 9 8 7 7 7 7 7 8 8 8 7 7 7 6 6 6 6 6 5 4 3 2 1 0
7 8 8 8 9 9 9 8 8 8 8 8 8 8 9 9 9 9 10 10 10 9 9 10 10 9 8 8 9 9 8 9 9 8 8 8 9 9 9 10 11 13 14 11 12 11 14 19 18 19 15 11 11 10 10 11 10 10 10 10 9 9 10 10 10 12 9 9 9 8 8 8 7 8 8 7 7 6 6 6 5 6 7 6 5 4 3
6 7 8 8 8 8 8 8 8 8 8 8 8 8 8 8 7 8 8 10 9 9 9 9 9 11 11 9 8 9 9 8 9 9 9 9 9 10 11 9 10 11 12 12 12 12 11 12 12 13 13 12 11 11 10 10 9 10 11 10 11 9 9 12 11 11 10 10 9 9 9 8 9 9 8 8 8 8 8 8 7 7 7 6 6 6 6
5 5 7 7 7 8 8 8 8 8 8 8 8 7 7 7 7 7 7 10 9 9 9 9 9 10 9 9 9 8 8 10 9 8 8 9 9 8 10 11 9 11 12 11 11 11 10 11 12 14 13 11 10 10 11 12 11 11 10 11 10 10 11 10 10 10 10 11 11 10 11 10 9 10 10 9 9 8 8 8 8 7 7 7 7 6 6
Wind_Direction
251 261 273 282 279 261 266 271 270 270 262 234 237 238 241 241 242 248 244 8 287 276 265 266 262 261 264 271 275 276 289 298 297 292 295 296 294 295 295 289 280 272 270 263 254 243 232 220 211 206 203 199 196 195 195 190 193 189 177 186 192 193 193 196 196 196 193 192 193 188 181 182 172 180 180 181 172 171 169 172 174 178 176 175 171 174 168
262 259 253 259 275 282 273 262 261 258 259 259 246 248 250 241 250 264 285 288 274 265 257 258 259 262 272 278 279 278 277 277 277 280 288 288 291 289 288 287 288 287 282 276 263 248 236 225 216 209 203 200 195 192 187 184 193 199 192 192 193 193 195 197 193 190 188 184 183 181 167 181 177 169 164 173 176 171 172 174 170 171 172 173 173 172 167
253 239 249 231 236 252 269 269 264 260 258 259 256 253 249 250 261 261 267 273 272 263 249 257 270 279 273 272 268 266 264 265 268 276 282 286 285 286 287 284 284 285 284 276 265 246 233 226 221 211 204 199 195 192 190 188 192 197 192 192 194 194 197 195 188 186 185 187 173 166 173 185 173 164 167 169 175 175 175 173 170 165 167 171 176 173 168
285 234 235 249 247 248 255 265 265 256 249 250 241 237 225 220 243 252 258 257 255 267 263 268 268 268 266 265 269 273 282 285 281 277 278 282 279 280 285 284 283 283 281 272 259 248 233 223 216 210 200 194 189 191 188 198 198 194 192 193 195 197 197 186 185 185 187 181 179 176 175 182 175 159 156 163 175 174 174 172 167 165 170 175 175 171 168
278 295 243 250 272 271 264 251 245 238 234 233 248 253 245 230 230 242 242 246 250 258 270 282 276 270 267 269 274 284 281 278 278 278 277 276 275 275 278 280 277 277 275 269 260 250 242 226 217 210 200 194 196 193 197 199 193 191 192 192 194 194 187 182 181 184 181 181 180 176 182 182 168 149 157 165 173 177 181 176 157 170 177 172 176 174 170
282 343 319 135 275 278 245 203 215 232 221 215 225 237 233 234 213 230 238 252 267 280 278 266 269 272 274 283 283 274 269 283 289 284 271 267 269 273 276 274 271 274 272 263 257 248 242 232 221 211 199 197 193 186 188 191 189 187 188 189 188 186 182 183 180 170 173 181 179 174 174 169 152 160 162 171 173 175 172 168 165 174 180 178 175 174 173
276 19 277 285 262 250 19 343 272 255 270 259 227 242 248 247 232 234 252 261 265 265 263 268 273 276 280 281 281 280 266 250 257 271 280 275 272 277 282 281 274 269 268 265 258 250 241 229 216 204 200 193 188 190 188 187 185 186 187 184 184 180 179 179 169 175 170 175 173 164 163 169 172 167 173 180 185 182 176 176 173 177 179 181 178 176 175
277 269 206 284 243 1 315 300 113 302 346 65 315 275 255 254 262 264 261 261 263 267 276 287 289 287 288 290 277 265 266 251 242 254 262 272 281 284 281 279 276 273 262 256 253 249 239 219 210 204 198 194 196 193 189 188 189 189 188 186 180 179 181 183 182 180 177 177 174 170 172 174 176 175 173 182 186 179 175 172 177 168 179 185 177 176 172
262 264 241 247 311 315 359 351 6 358 331 342 304 290 261 205 237 235 245 251 254 263 271 272 274 279 288 284 278 261 243 261 246 249 268 283 291 290 284 272 270 269 263 255 255 255 242 216 205 200 195 193 193 187 181 177 182 185 185 186 182 183 185 182 182 180 176 172 171 172 173 175 175 165 168 175 184 174 176 181 179 176 182 186 182 173 164
231 282 298 296 254 282 327 324 344 331 300 66 104 266 282 275 258 277 267 266 276 281 282 283 283 291 287 272 262 252 115 149 282 293 287 287 283 285 285 281 270 265 261 256 245 241 231 213 204 195 194 191 186 179 180 179 176 183 186 185 182 184 185 181 179 175 173 171 171 173 174 178 178 175 166 176 175 177 182 177 184 183 179 181 183 177 171
313 280 296 301 306 273 216 279 269 283 263 256 272 255 268 69 19 356 326 305 297 294 291 291 297 281 266 258 261 271 353 330 326 320 313 308 302 295 290 283 276 274 266 253 245 228 224 213 204 196 191 188 186 180 183 181 176 182 187 182 181 184 180 176 175 170 169 171 171 172 177 179 174 173 179 179 169 167 182 184 186 181 171 179 171 161 163
274 306 302 303 261 285 228 235 257 258 261 193 158 271 282 18 336 323 313 296 291 289 285 283 275 252 252 261 265 304 321 315 310 309 308 310 311 305 298 291 273 269 275 266 235 226 225 220 199 189 185 186 183 181 177 175 183 187 186 186 191 185 172 167 163 164 166 169 172 175 179 177 176 176 171 171 177 176 176 181 185 186 182 166 160 169 170
314 296 275 266 272 245 262 263 270 278 283 259 254 269 294 202 255 258 245 252 262 271 273 272 272 260 256 271 286 296 301 303 303 303 301 301 301 300 296 290 297 293 281 243 232 221 215 201 193 188 184 183 177 174 177 180 186 185 182 180 176 172 164 161 162 165 168 173 176 179 175 173 175 175 178 177 170 176 186 173 168 178 179 183 170 170 175
343 326 292 297 266 299 327 311 306 304 307 327 311 287 271 284 288 286 274 266 268 273 267 265 264 268 272 277 284 287 289 292 294 299 303 305 302 297 291 287 283 281 278 247 238 238 215 192 187 187 189 185 180 177 176 184 188 178 172 171 171 167 165 165 165 168 171 177 177 178 178 169 170 176 181 181 178 180 174 171 173 177 176 180 184 176 169
286 313 315 325 343 27 50 342 329 80 347 289 286 300 306 298 288 283 293 301 280 274 274 263 263 269 274 276 279 280 285 288 290 297 302 303 306 307 308 306 295 277 263 240 226 228 211 201 198 189 194 192 186 178 187 193 186 177 170 166 167 167 166 166 166 169 172 173 177 176 172 174 173 178 180 183 180 172 168 168 169 171 174 180 179 179 174
316 323 336 344 325 302 334 351 317 311 291 295 301 307 308 322 325 334 326 301 279 270 267 275 274 276 279 280 275 278 282 285 286 293 296 302 306 305 298 289 287 295 274 253 214 205 203 199 202 199 196 197 195 194 199 194 187 181 170 174 165 162 163 161 163 169 174 177 176 173 171 174 180 177 179 182 169 167 171 168 170 173 178 175 177 174 171
310 318 298 291 301 317 322 328 306 288 294 300 305 308 314 327 338 331 311 312 308 300 294 290 282 278 277 276 280 284 286 289 290 295 304 307 309 307 300 295 295 297 276 250 223 195 197 197 198 202 203 200 196 206 209 194 188 183 179 174 165 166 165 168 174 181 180 177 178 174 175 175 179 184 184 180 176 176 167 173 177 176 179 176 177 168 168
314 272 254 270 307 326 323 320 319 319 316 317 319 319 324 335 331 314 310 311 310 309 307 307 293 280 283 283 284 286 289 293 295 301 304 310 313 307 295 295 303 296 297 274 235 197 198 195 200 203 203 204 202 208 203 199 194 187 177 172 169 172 176 181 186 183 180 182 185 184 174 181 181 187 188 182 171 160 170 178 182 179 180 176 173 168 171
331 319 279 327 332 332 320 314 323 323 322 326 328 323 323 321 312 306 318 313 305 305 313 307 305 295 285 281 279 287 297 300 304 308 309 308 306 305 298 298 305 323 331 281 249 204 194 200 203 209 206 207 211 207 201 196 195 191 181 176 177 176 183 189 187 184 186 190 190 189 181 176 179 168 175 186 179 172 174 175 180 184 174 169 161 162 167
286 282 307 330 331 311 295 314 326 329 332 332 331 325 318 314 305 311 317 320 311 317 316 316 316 309 295 290 289 304 309 310 312 312 309 309 308 308 305 297 313 321 355 325 238 196 192 192 201 215 214 211 210 203 199 197 193 188 177 179 179 185 183 179 181 188 194 191 190 189 174 166 164 173 178 180 177 169 167 171 176 179 173 170 166 165 172
283 273 294 333 319 300 319 330 323 326 326 329 329 329 326 329 330 328 327 327 316 319 322 326 324 327 316 307 306 305 308 323 327 320 316 316 320 332 336 342 346 6 356 28 339 137 132 174 172 211 217 217 210 200 200 200 195 188 185 185 189 187 187 184 181 187 195 188 194 182 145 146 145 157 170 181 165 164 192 171 167 168 178 178 178 182 173
332 341 329 339 339 332 326 320 322 325 326 335 328 330 335 334 333 331 332 327 324 321 318 328 332 340 335 336 340 318 335 338 333 330 330 338 350 0 7 17 28 29 35 41 49 41 79 90 104 193 217 214 210 203 201 199 196 193 184 181 187 187 182 185 187 186 193 184 182 154 133 130 112 77 70 112 164 174 180 191 172 165 159 172 181 178 183
307 311 319 327 314 303 295 308 317 322 328 335 329 325 324 326 327 322 324 324 329 331 331 340 358 350 346 346 347 342 358 355 347 340 349 1 8 14 16 26 26 28 26 24 41 50 47 57 90 131 161 172 177 182 182 184 184 184 178 181 188 187 185 192 189 184 169 140 132 132 151 157 160 155 136 56 37 51 106 123 139 147 169 156 167 186 178
281 295 315 318 310 303 296 310 316 315 326 330 323 326 326 323 327 329 326 324 318 311 319 351 351 357 1 352 14 356 1 14 7 9 16 17 16 19 30 35 30 27 20 15 19 33 72 97 113 117 144 165 178 180 187 186 181 175 177 179 185 186 190 185 159 156 155 159 162 155 158 162 154 148 141 130 92 44 98 133 130 138 151 151 164 165 169
297 307 310 311 307 296 306 318 310 308 323 331 331 327 324 327 329 335 338 333 330 337 345 355 343 340 354 0 11 354 342 2 7 7 22 27 24 30 30 30 27 25 23 15 9 2 4 23 59 99 122 122 143 163 169 177 175 175 180 180 182 180 170 145 151 155 156 165 165 160 157 158 157 160 160 154 139 124 66 81 116 137 147 154 157 158 150
309 322 316 311 294 303 315 318 320 333 331 333 332 328 323 324 335 343 346 343 336 331 347 359 357 350 355 14 13 332 346 352 332 343 33 34 25 21 18 15 12 17 20 23 21 19 12 8 6 11 43 58 73 112 137 160 179 183 186 191 190 169 160 164 166 168 174 172 167 169 168 166 167 170 169 161 154 145 139 130 89 59 78 140 149 141 144
334 330 337 334 334 332 340 346 318 315 322 325 327 324 324 330 325 322 325 337 350 353 359 352 353 354 5 16 13 8 11 6 5 4 23 35 34 28 17 11 18 25 26 26 22 10 8 22 22 13 10 15 47 104 134 145 145 156 171 164 140 107 152 167 176 177 177 168 159 161 165 167 168 168 165 162 152 153 157 158 159 155 151 125 139 143 142
338 342 352 334 312 318 319 317 312 308 304 295 309 323 332 332 341 353 355 357 352 345 344 349 350 2 10 4 4 5 7 8 3 10 19 14 20 22 14 16 23 37 33 30 23 13 17 25 28 28 17 3 6 27 100 99 111 150 165 159 150 146 153 163 153 149 149 160 158 162 164 166 160 157 153 149 155 151 128 113 121 129 125 132 119 125 138
344 338 329 307 296 310 308 305 307 322 333 338 344 349 344 347 345 348 350 351 343 340 348 343 347 4 6 355 9 6 8 359 3 12 21 359 15 30 28 35 46 45 40 33 28 26 34 32 29 28 15 2 6 13 3 55 139 155 155 155 142 139 147 151 143 136 133 138 147 144 127 121 121 116 112 111 113 128 137 139 140 138 129 130 122 100 94
338 337 327 323 323 327 331 338 339 337 335 338 343 343 348 349 347 344 342 346 344 339 338 336 346 352 354 358 2 5 1 358 354 3 26 25 23 21 25 31 49 51 44 36 28 26 33 31 28 22 7 8 18 26 35 41 47 61 76 82 107 125 133 128 126 119 126 131 129 123 128 135 137 145 150 152 145 138 142 142 136 134 137 142 145 147 158
333 333 328 328 337 339 340 339 338 336 337 340 343 343 349 349 346 344 339 337 340 337 333 338 344 348 354 351 344 358 359 1 5 12 24 27 28 26 28 28 36 33 31 29 22 23 29 31 30 22 3 359 18 52 67 66 68 79 78 88 68 102 112 107 100 114 112 115 121 123 123 129 131 135 134 138 139 137 136 130 130 134 139 145 151 157 152
332 330 329 342 345 341 338 340 341 339 338 337 344 348 345 344 340 332 329 334 328 326 329 339 348 345 342 339 341 1 5 6 11 15 17 21 24 25 29 36 42 42 38 32 29 28 25 30 32 11 7 17 21 33 81 103 96 78 84 90 92 83 89 103 114 118 129 128 124 122 126 123 120 117 123 133 141 141 140 139 141 147 152 155 159 159 147
346 344 346 342 340 341 341 337 338 334 336 336 335 333 326 333 321 316 322 324 321 330 343 344 337 334 335 338 357 6 4 5 11 17 18 18 17 16 21 29 42 46 41 34 22 21 21 25 21 5 0 10 16 32 62 81 78 84 82 88 93 99 96 82 91 106 111 123 132 135 135 130 132 134 138 135 138 137 140 142 143 150 159 163 158 147 157
348 338 324 319 324 324 327 327 330 328 328 328 327 330 328 328 327 318 327 327 327 337 343 334 327 327 330 338 9 11 11 18 16 13 12 11 8 10 13 25 50 51 46 35 31 23 15 12 5 25 20 18 22 38 50 64 69 77 101 106 104 96 97 106 106 103 102 88 91 95 100 114 123 128 129 128 132 136 135 135 140 145 144 147 147 137 150
343 336 330 322 321 322 324 324 325 329 331 330 333 334 334 333 333 328 327 332 341 333 325 324 333 334 329 346 16 11 21 32 28 24 12 12 9 12 7 14 35 43 44 38 26 16 8 13 360 349 17 33 38 32 51 92 104 106 110 111 106 103 99 94 91 97 113 120 118 114 115 112 112 110 117 127 131 128 124 125 130 137 138 147 145 136 143
347 343 340 335 330 330 330 328 326 329 331 331 330 330 332 339 336 336 337 334 334 338 335 331 334 338 351 10 13 9 8 6 13 16 20 19 17 8 23 35 29 25 20 22 17 4 353 8 0 346 348 19 35 38 33 59 84 91 100 101 99 85 91 92 92 90 100 118 121 122 120 113 116 120 126 121 119 116 115 124 128 138 149 151 146 142 130
351 346 342 339 337 335 334 333 333 332 333 335 335 336 335 341 344 335 331 338 346 343 339 337 344 354 353 358 350 1 12 10 6 14 10 10 14 28 28 27 25 14 8 10 347 343 343 356 340 349 18 22 25 35 29 42 71 66 73 75 97 104 103 104 104 106 99 97 96 97 106 115 120 117 116 116 121 120 125 125 132 137 143 142 138 138 138
347 348 344 342 340 338 337 336 336 334 334 336 339 343 343 337 339 343 340 339 345 345 345 354 348 337 317 320 18 24 12 6 8 8 14 22 25 43 35 31 17 8 7 347 325 330 341 338 333 9 23 28 30 40 32 43 63 64 87 99 105 106 112 118 117 110 106 107 108 116 113 112 116 120 118 116 121 128 129 130 138 141 136 139 134 139 150
346 347 346 345 341 342 339 338 340 341 343 342 341 342 346 345 341 348 349 343 342 352 356 356 347 357 1 17 24 20 15 5 2 9 19 25 33 58 61 46 34 17 353 321 316 333 340 337 344 16 30 32 33 43 36 26 42 85 77 80 98 102 104 103 98 97 104 120 124 124 121 118 117 119 120 123 124 125 128 133 135 136 137 140 138 143 149
347 346 346 345 345 343 342 341 341 342 343 345 347 345 345 346 349 352 356 355 351 359 359 1 0 3 4 10 19 25 11 6 1 7 11 16 34 43 63 47 23 9 359 343 347 351 342 347 356 14 20 19 18 35 41 26 45 79 86 83 84 89 94 97 107 110 110 111 106 99 106 106 104 111 116 122 131 136 138 136 138 137 131 135 143 148 151
347 345 345 346 345 344 343 342 342 343 343 345 349 349 348 347 345 352 358 356 350 357 4 8 4 357 357 360 5 11 15 15 18 15 8 20 31 21 32 22 359 357 357 342 337 346 359 14 17 7 6 7 23 360 27 38 48 65 83 92 93 93 95 91 90 89 99 106 112 116 121 124 117 120 124 125 129 135 139 143 145 149 152 154 156 158 165
350 346 346 347 346 344 343 343 344 345 347 349 350 351 350 351 354 355 354 358 359 5 10 8 4 356 352 354 0 3 9 11 25 36 36 40 31 18 19 12 353 356 345 333 333 346 1 5 10 12 360 342 2 359 11 57 61 49 53 62 81 96 106 107 100 102 107 113 116 115 116 123 128 127 120 121 132 135 139 140 142 142 148 152 160 169 172
349 348 348 348 345 344 344 347 349 349 346 350 353 354 353 354 356 356 360 4 7 9 18 15 3 360 1 1 3 9 10 4 7 16 46 60 54 42 24 349 346 359 345 341 349 357 6 7 2 360 346 341 340 340 0 39 54 61 51 50 57 67 71 80 96 110 119 118 113 116 120 124 126 130 135 138 139 140 139 134 138 150 158 163 161 161 170
347 348 347 347 345 346 348 350 351 352 353 351 353 356 358 0 360 0 0 4 6 10 17 22 14 3 0 360 2 7 11 8 6 358 358 18 45 40 25 4 355 350 355 349 352 3 9 8 6 349 349 359 2 6 25 48 52 54 52 58 65 59 67 65 87 90 91 101 116 122 125 122 128 137 145 144 145 143 147 148 153 155 158 160 165 164 171
343 344 346 345 345 350 353 351 352 352 351 347 352 359 1 1 2 3 4 5 8 10 15 20 24 14 3 1 358 356 5 17 13 4 12 7 6 6 6 356 359 0 358 350 1 7 15 10 357 357 4 4 16 30 46 42 45 48 55 58 66 72 69 60 50 65 77 87 94 106 113 123 128 130 132 129 130 136 141 149 151 156 158 159 159 169 174
340 339 342 347 349 350 349 347 347 350 354 357 2 4 5 5 3 1 3 6 11 12 9 12 21 25 18 6 359 354 353 9 30 24 24 21 9 349 356 359 5 2 359 7 23 14 9 360 3 6 8 14 15 38 43 39 37 36 37 38 46 52 57 60 60 63 69 61 53 61 79 102 102 101 105 126 132 128 129 131 136 137 140 136 143 147 152
341 339 342 345 344 346 346 349 351 354 358 4 8 4 356 357 359 358 356 359 7 13 13 13 17 21 26 26 16 4 359 351 5 26 15 8 10 8 9 8 9 5 12 28 26 23 14 9 5 6 8 16 30 40 36 34 32 34 37 35 29 34 36 37 42 48 56 59 59 61 62 53 59 72 82 82 87 84 91 93 82 74 89 108 125 126 136
340 341 340 341 343 345 346 352 358 0 2 1 357 357 351 350 355 358 357 355 358 7 15 17 16 14 17 25 32 26 13 357 346 358 7 1 1 6 13 15 8 2 10 28 29 24 14 12 13 14 13 17 36 41 37 35 35 35 36 33 33 31 26 25 26 31 42 44 41 40 41 43 37 40 42 44 41 36 35 40 53 64 77 64 38 66 130
342 339 338 339 341 347 350 351 354 355 353 347 348 354 352 352 355 359 359 357 360 5 13 19 18 17 13 15 23 30 26 20 15 348 350 359 2 2 4 7 11 12 17 24 24 26 14 14 17 16 21 32 39 39 37 31 28 32 34 32 32 30 28 28 24 23 32 32 32 39 45 45 38 37 40 36 31 27 23 28 27 24 21 25 63 77 37
341 340 341 346 347 350 350 349 352 348 344 344 344 347 354 357 3 3 359 356 355 357 5 15 19 15 10 6 13 20 23 24 20 12 7 8 9 13 10 15 14 16 24 30 30 29 22 20 22 22 25 31 31 34 39 40 38 37 40 34 29 30 24 26 35 34 34 41 43 42 42 45 44 44 44 44 36 29 24 19 28 27 19 26 33 32 40
341 341 341 341 341 343 342 347 346 340 342 344 341 343 356 3 8 4 3 356 353 360 1 5 15 17 13 11 9 12 13 14 18 19 18 12 13 17 15 15 19 20 26 33 35 33 32 27 20 20 27 30 33 33 33 35 37 38 35 35 31 29 25 29 35 37 32 33 42 40 37 37 36 37 36 36 31 31 26 22 19 20 22 24 22 22 23
325 332 336 334 335 335 337 344 349 348 346 343 341 345 359 360 4 7 8 8 4 2 358 359 6 11 12 11 8 8 8 11 12 15 21 21 19 18 15 14 18 22 27 31 33 30 31 27 23 21 22 28 29 30 34 34 40 42 37 34 30 28 30 28 27 32 33 33 38 40 35 32 34 41 39 36 34 33 31 27 22 19 21 22 22 19 19